period_start,C,m1,H,J0,J1,J2,J3,J4,J5,JA,JB,JC,JD,JJ,JK,JN,#
2013-07-11 00:00:55,0.01,0.06,0.00,28.72,30.37,31.91,5.83,31.46,1009.31,2048.03,3421.13,3333.99,3617.89,350.82,315.85,7.21,0000 0000 0000 0000 000000
2013-07-11 00:01:55,0.01,0.06,0.00,28.71,30.37,31.93,5.83,31.50,1009.30,2048.01,3421.09,3333.99,3617.88,350.47,315.76,7.22,0000 0000 0000 0000 000000
2013-07-11 00:02:56,-0.00,0.06,0.00,28.68,30.37,31.85,5.88,31.21,1009.30,2048.04,3421.06,3333.99,3617.87,350.92,316.35,7.22,0000 0000 0000 0000 000000
2013-07-11 00:03:56,0.01,0.06,0.00,28.65,30.37,31.84,5.72,31.17,1009.31,2048.04,3421.07,3333.99,3617.86,349.98,315.40,7.23,0000 0000 0000 0000 000000
2013-07-11 00:04:56,0.01,0.06,0.00,28.68,30.37,31.84,5.98,31.33,1009.31,2048.04,3421.03,3333.99,3617.73,350.48,316.31,7.23,0000 0000 0000 0000 000000
2013-07-11 00:05:56,0.01,0.06,0.00,28.69,30.37,31.90,5.66,31.42,1009.31,2048.04,3421.02,3333.99,3617.74,349.51,315.75,7.24,0000 0000 0000 0000 000000
2013-07-11 00:06:57,0.00,0.06,0.00,28.65,30.37,31.92,5.78,31.38,1009.32,2048.03,3421.02,3333.99,3617.66,350.76,316.31,7.24,0000 0000 0000 0000 000000
2013-07-11 00:07:57,0.00,0.06,0.00,28.64,30.37,31.92,5.77,31.46,1009.30,2048.02,3421.01,3333.99,3617.52,349.81,315.45,7.25,0000 0000 0000 0000 000000
2013-07-11 00:08:58,0.01,0.06,0.00,28.66,30.37,31.86,5.84,31.54,1009.30,2048.04,3421.00,3333.99,3617.56,349.93,315.55,7.26,0000 0000 0000 0000 000000
2013-07-11 00:09:58,0.01,0.06,0.00,28.68,30.37,31.92,5.75,31.33,1009.31,2048.02,3421.03,3333.99,3617.45,349.67,315.29,7.26,0000 0000 0000 0000 000000
2013-07-11 00:10:58,-0.00,0.06,0.00,28.65,30.37,31.91,5.69,31.46,1009.32,2048.01,3421.01,3333.99,3617.49,349.93,315.57,7.27,0000 0000 0000 0000 000000
2013-07-11 00:11:58,-0.00,0.06,0.00,28.62,30.37,31.99,5.89,31.33,1009.32,2048.01,3421.01,3333.99,3617.43,349.81,315.55,7.27,0000 0000 0000 0000 000000
2013-07-11 00:12:59,0.01,0.06,0.00,28.65,30.37,31.94,5.81,31.38,1009.29,2048.00,3421.00,3333.99,3617.26,349.56,315.01,7.28,0000 0000 0000 0000 000000
2013-07-11 00:13:59,0.01,0.06,0.00,28.65,30.37,31.83,5.73,31.38,1009.30,2048.03,3421.00,3333.97,3617.21,349.81,315.44,7.29,0000 0000 0000 0000 000000
2013-07-11 00:14:59,0.02,0.06,0.00,28.67,30.37,31.93,5.77,31.50,1009.29,2048.04,3421.00,3333.98,3617.12,349.90,315.51,7.29,0000 0000 0000 0000 000000
2013-07-11 00:15:59,0.01,0.06,0.00,28.66,30.37,31.92,5.82,31.54,1009.29,2048.04,3421.00,3333.98,3617.09,349.74,315.90,7.30,0000 0000 0000 0000 000000
2013-07-11 00:17:00,-0.00,0.06,0.00,28.68,30.37,31.91,5.67,31.50,1009.29,2048.03,3421.00,3333.97,3617.09,350.10,315.66,7.30,0000 0000 0000 0000 000000
2013-07-11 00:18:00,-0.01,0.06,0.00,28.65,30.37,31.96,5.82,31.42,1009.29,2048.02,3421.00,3333.96,3617.05,349.89,315.51,7.31,0000 0000 0000 0000 000000
2013-07-11 00:19:00,0.01,0.06,0.00,28.66,30.37,31.91,5.81,31.38,1009.29,2048.06,3421.00,3333.95,3617.04,349.39,315.20,7.31,0000 0000 0000 0000 000000
2013-07-11 00:20:01,0.01,0.06,0.00,28.69,30.37,31.84,5.79,31.42,1009.29,2048.07,3420.97,3333.92,3617.02,349.43,315.15,7.32,0000 0000 0000 0000 000000
2013-07-11 00:21:01,0.00,0.06,0.00,28.67,30.37,31.88,5.84,31.54,1009.29,2048.04,3420.96,3333.89,3617.00,349.96,315.70,7.33,0000 0000 0000 0000 000000
2013-07-11 00:22:01,0.01,0.06,0.00,28.67,30.36,31.92,5.86,31.38,1009.29,2048.06,3420.96,3333.88,3617.00,350.36,315.91,7.33,0000 0000 0000 0000 000000
2013-07-11 00:23:01,0.01,0.06,0.00,28.66,30.36,31.86,5.79,31.50,1009.29,2048.05,3420.93,3333.79,3617.00,349.71,315.85,7.34,0000 0000 0000 0000 000000
2013-07-11 00:24:02,0.01,0.06,0.00,28.66,30.36,31.89,5.82,31.54,1009.29,2048.10,3420.85,3333.69,3617.00,349.33,315.00,7.34,0000 0000 0000 0000 000000
2013-07-11 00:25:02,0.04,0.06,0.00,28.65,30.35,31.86,5.91,31.54,1009.28,2048.10,3420.84,3333.59,3617.00,350.29,315.86,7.35,0000 0000 0000 0000 000000
2013-07-11 00:26:02,0.06,0.06,0.00,28.63,30.35,31.90,5.73,31.58,1009.28,2048.10,3420.81,3333.45,3617.00,349.81,315.83,7.36,0000 0000 0000 0000 000000
2013-07-11 00:27:03,0.02,0.06,0.00,28.65,30.35,31.94,5.82,31.50,1009.29,2048.04,3420.78,3333.37,3617.00,349.89,315.51,7.36,0000 0000 0000 0000 000000
2013-07-11 00:28:03,-0.02,0.06,0.00,28.67,30.35,31.90,5.84,31.50,1009.29,2048.07,3420.76,3333.39,3617.00,350.33,315.88,7.37,0000 0000 0000 0000 000000
2013-07-11 00:29:03,0.03,0.06,0.00,28.65,30.35,31.90,5.84,31.25,1009.29,2048.05,3420.49,3333.22,3617.00,350.03,315.57,7.37,0000 0000 0000 0000 000000
2013-07-11 00:30:04,0.07,0.06,0.00,28.64,30.35,31.95,5.83,31.21,1009.29,2048.06,3420.31,3333.10,3616.98,350.76,316.31,7.38,0000 0000 0000 0000 000000
2013-07-11 00:31:04,0.03,0.06,0.00,28.66,30.35,31.95,5.83,31.33,1009.29,2048.04,3420.33,3333.09,3616.98,350.23,315.81,7.39,0000 0000 0000 0000 000000
2013-07-11 00:32:04,-0.02,0.06,0.00,28.64,30.35,31.91,5.83,31.50,1009.29,2048.04,3420.41,3333.09,3616.97,350.47,316.04,7.39,0000 0000 0000 0000 000000
2013-07-11 00:33:04,0.01,0.06,0.00,28.65,30.35,31.91,5.70,31.21,1009.29,2048.06,3420.33,3333.13,3616.95,349.54,315.29,7.40,0000 0000 0000 0000 000000
2013-07-11 00:34:05,0.02,0.06,0.00,28.67,30.35,31.89,5.71,31.54,1009.29,2048.05,3420.30,3333.14,3616.96,349.49,315.45,7.40,0000 0000 0000 0000 000000
2013-07-11 00:35:05,-0.01,0.06,0.00,28.64,30.35,31.88,5.86,31.42,1009.29,2048.05,3420.18,3333.12,3616.96,350.29,315.77,7.41,0000 0000 0000 0000 000000
2013-07-11 00:36:05,0.03,0.06,0.00,28.63,30.35,31.82,5.83,31.54,1009.29,2048.07,3420.10,3333.08,3616.94,349.87,315.26,7.41,0000 0000 0000 0000 000000
2013-07-11 00:37:06,0.03,0.06,0.00,28.63,30.35,31.94,5.90,31.58,1009.29,2048.06,3420.06,3333.04,3616.91,349.81,316.09,7.42,0000 0000 0000 0000 000000
2013-07-11 00:38:06,0.01,0.06,0.00,28.64,30.35,31.97,5.73,31.38,1009.29,2048.07,3420.09,3333.04,3616.91,349.35,315.15,7.43,0000 0000 0000 0000 000000
2013-07-11 00:39:06,0.00,0.06,0.00,28.62,30.35,31.89,5.60,31.42,1009.29,2048.10,3420.08,3333.09,3616.90,348.86,314.75,7.43,0000 0000 0000 0000 000000
2013-07-11 00:40:07,0.01,0.06,0.00,28.63,30.35,31.85,5.77,31.54,1009.29,2048.09,3420.04,3333.09,3616.84,350.35,315.95,7.44,0000 0000 0000 0000 000000
2013-07-11 00:41:07,0.00,0.06,0.00,28.63,30.35,31.95,5.82,31.33,1009.29,2048.04,3420.01,3333.04,3616.74,349.88,315.52,7.44,0000 0000 0000 0000 000000
2013-07-11 00:42:07,-0.00,0.06,0.00,28.64,30.35,31.97,5.86,31.42,1009.29,2048.02,3420.00,3333.01,3616.46,349.29,314.98,7.45,0000 0000 0000 0000 000000
2013-07-11 00:43:07,0.02,0.06,0.00,28.64,30.35,31.92,5.65,31.33,1009.29,2048.04,3420.00,3333.00,3616.30,349.49,315.16,7.46,0000 0000 0000 0000 000000
2013-07-11 00:44:08,0.02,0.06,0.00,28.59,30.35,31.88,5.72,31.46,1009.29,2048.04,3420.00,3333.00,3616.20,350.33,315.96,7.46,0000 0000 0000 0000 000000
2013-07-11 00:45:08,0.01,0.06,0.00,28.58,30.35,31.82,5.74,31.50,1009.29,2048.06,3420.00,3333.00,3616.21,349.78,315.39,7.47,0000 0000 0000 0000 000000
2013-07-11 00:46:08,0.00,0.06,0.00,28.58,30.35,31.90,5.82,31.29,1009.29,2048.04,3420.00,3333.00,3616.30,350.47,316.17,7.47,0000 0000 0000 0000 000000
2013-07-11 00:47:09,-0.01,0.06,0.00,28.59,30.35,31.85,5.78,31.29,1009.29,2048.04,3420.00,3333.00,3616.21,349.63,315.34,7.48,0000 0000 0000 0000 000000
2013-07-11 00:48:09,0.01,0.06,0.00,28.61,30.35,31.83,5.82,31.38,1009.29,2048.08,3420.00,3333.00,3616.20,349.87,315.53,7.48,0000 0000 0000 0000 000000
2013-07-11 00:49:09,0.03,0.06,0.00,28.63,30.35,31.88,5.78,31.63,1009.29,2048.09,3419.99,3333.00,3616.21,351.12,316.56,7.49,0000 0000 0000 0000 000000
2013-07-11 00:50:10,0.02,0.06,0.00,28.62,30.35,31.95,5.65,31.58,1009.29,2048.10,3419.97,3333.00,3616.14,349.41,315.42,7.50,0000 0000 0000 0000 000000
2013-07-11 00:51:10,0.01,0.06,0.00,28.62,30.35,31.91,5.92,31.50,1009.29,2048.10,3419.97,3333.01,3616.13,350.49,316.08,7.50,0000 0000 0000 0000 000000
2013-07-11 00:52:10,0.01,0.06,0.00,28.61,30.35,31.89,5.69,31.67,1009.29,2048.10,3419.94,3333.00,3616.11,351.09,316.63,7.51,0000 0000 0000 0000 000000
2013-07-11 00:53:11,-0.00,0.06,0.00,28.58,30.35,31.89,5.77,31.38,1009.29,2048.10,3419.74,3333.00,3616.09,350.30,315.86,7.51,0000 0000 0000 0000 000000
2013-07-11 00:54:11,0.02,0.06,0.00,28.60,30.34,31.81,5.91,31.29,1009.29,2048.17,3419.64,3333.00,3616.05,350.72,316.31,7.52,0000 0000 0000 0000 000000
2013-07-11 00:55:11,0.07,0.06,0.00,28.66,30.34,31.86,5.71,31.38,1009.29,2048.16,3419.38,3333.00,3616.05,350.30,315.88,7.53,0000 0000 0000 0000 000000
2013-07-11 00:56:11,0.05,0.07,0.00,28.68,30.34,31.90,5.76,31.29,1009.29,2048.20,3419.25,3333.00,3616.04,350.01,315.69,7.53,0000 0000 0000 0000 000000
2013-07-11 00:57:12,0.02,0.07,0.00,28.69,30.34,31.85,5.73,31.38,1009.29,2048.14,3419.13,3333.00,3616.02,350.16,315.65,7.54,0000 0000 0000 0000 000000
2013-07-11 00:58:12,0.01,0.07,0.00,28.67,30.33,31.80,5.82,31.46,1009.29,2048.17,3419.10,3332.99,3616.00,349.96,315.56,7.54,0000 0000 0000 0000 000000
2013-07-11 00:59:12,0.02,0.07,0.00,28.64,30.33,31.85,5.73,31.33,1009.29,2048.28,3419.06,3332.99,3616.00,349.87,315.50,7.55,0000 0000 0000 0000 000000
2013-07-11 01:00:12,0.10,0.07,0.00,28.63,30.33,31.87,5.83,31.42,1009.29,2048.31,3419.05,3332.98,3616.01,350.16,315.46,7.56,0000 0000 0000 0000 000000
2013-07-11 01:01:13,0.01,0.07,0.00,28.63,30.33,31.85,5.80,31.33,1009.29,2048.39,3419.04,3332.98,3616.00,349.96,315.60,7.56,0000 0000 0000 0000 000000
2013-07-11 01:02:13,0.09,0.07,0.00,28.61,30.33,31.80,5.66,31.54,1009.29,2048.43,3419.04,3332.98,3616.00,349.14,315.12,7.57,0000 0000 0000 0000 000000
2013-07-11 01:03:13,-0.00,0.07,0.00,28.58,30.32,31.82,5.78,31.58,1009.29,2048.33,3419.04,3332.97,3616.00,350.52,316.15,7.57,0000 0000 0000 0000 000000
2013-07-11 01:04:13,-0.03,0.07,0.00,28.61,30.32,31.89,5.74,31.38,1009.28,2048.35,3419.03,3332.96,3616.00,350.23,315.45,7.58,0000 0000 0000 0000 000000
2013-07-11 01:05:14,-0.00,0.07,0.00,28.60,30.32,31.86,5.72,31.46,1009.28,2048.43,3419.01,3332.97,3616.00,348.32,314.16,7.58,0000 0000 0000 0000 000000
2013-07-11 01:06:14,0.07,0.07,0.00,28.57,30.32,31.85,5.66,31.54,1009.29,2048.55,3419.00,3332.99,3616.00,349.35,315.23,7.59,0000 0000 0000 0000 000000
2013-07-11 01:07:14,0.10,0.07,0.00,28.60,30.32,31.87,5.88,31.63,1009.29,2048.63,3419.00,3332.99,3616.01,349.49,315.73,7.60,0000 0000 0000 0000 000000
2013-07-11 01:08:15,0.02,0.07,0.00,28.63,30.32,31.89,5.92,31.50,1009.28,2048.64,3419.00,3332.98,3616.00,350.67,316.24,7.60,0000 0000 0000 0000 000000
2013-07-11 01:09:15,0.01,0.07,0.00,28.63,30.32,31.90,5.70,31.67,1009.29,2048.61,3419.01,3332.99,3616.00,349.72,315.06,7.61,0000 0000 0000 0000 000000
2013-07-11 01:10:15,0.01,0.07,0.00,28.60,30.32,31.98,5.83,31.58,1009.29,2048.66,3419.00,3332.99,3616.00,350.16,315.52,7.61,0000 0000 0000 0000 000000
2013-07-11 01:11:16,0.02,0.07,0.00,28.60,30.32,31.95,5.92,31.46,1009.29,2048.58,3419.00,3332.99,3616.00,350.32,315.95,7.62,0000 0000 0000 0000 000000
2013-07-11 01:12:16,-0.05,0.07,0.00,28.60,30.32,31.80,5.83,31.42,1009.28,2048.59,3419.00,3332.96,3616.00,350.40,316.02,7.63,0000 0000 0000 0000 000000
2013-07-11 01:13:16,0.00,0.07,0.00,28.60,30.32,31.90,5.70,31.54,1009.28,2048.63,3419.00,3332.92,3616.00,349.62,315.55,7.63,0000 0000 0000 0000 000000
2013-07-11 01:14:16,0.08,0.07,0.00,28.59,30.32,31.90,5.86,31.58,1009.29,2048.73,3419.00,3332.92,3616.00,350.58,316.20,7.64,0000 0000 0000 0000 000000
2013-07-11 01:15:17,0.04,0.07,0.00,28.62,30.32,31.82,5.85,31.67,1009.26,2048.73,3419.00,3332.94,3616.00,350.46,316.05,7.64,0000 0000 0000 0000 000000
2013-07-11 01:16:17,-0.00,0.07,0.00,28.64,30.32,31.86,5.73,31.50,1009.29,2048.78,3419.00,3332.95,3616.00,350.24,315.83,7.65,0000 0000 0000 0000 000000
2013-07-11 01:17:17,0.04,0.07,0.00,28.66,30.32,31.90,5.78,31.38,1009.29,2048.87,3418.99,3332.93,3616.00,350.70,316.26,7.65,0000 0000 0000 0000 000000
2013-07-11 01:18:18,0.07,0.07,0.00,28.65,30.32,31.91,5.66,31.46,1009.29,2048.90,3418.98,3332.88,3616.00,349.32,315.01,7.66,0000 0000 0000 0000 000000
2013-07-11 01:19:18,0.02,0.07,0.00,28.58,30.32,31.87,5.89,31.58,1009.29,2048.90,3418.97,3332.90,3615.99,350.58,316.34,7.67,0000 0000 0000 0000 000000
2013-07-11 01:20:18,0.00,0.07,0.00,28.60,30.32,31.81,5.75,31.42,1009.28,2048.87,3418.98,3332.92,3615.99,349.95,315.82,7.67,0000 0000 0000 0000 000000
2013-07-11 01:21:18,-0.04,0.07,0.00,28.61,30.32,31.81,5.86,31.46,1009.29,2048.81,3418.95,3332.89,3615.97,349.64,315.30,7.68,0000 0000 0000 0000 000000
2013-07-11 01:22:19,-0.01,0.07,0.00,28.61,30.32,31.82,5.78,31.54,1009.29,2048.86,3418.97,3332.86,3615.98,350.34,315.96,7.68,0000 0000 0000 0000 000000
2013-07-11 01:23:19,0.01,0.07,0.00,28.58,30.32,31.91,5.88,31.63,1009.29,2048.82,3418.98,3332.87,3615.98,350.77,316.38,7.69,0000 0000 0000 0000 000000
2013-07-11 01:24:19,-0.04,0.07,0.00,28.59,30.32,31.88,5.65,31.58,1009.29,2048.82,3418.98,3332.89,3615.97,349.56,315.40,7.70,0000 0000 0000 0000 000000
2013-07-11 01:25:20,0.02,0.07,0.00,28.59,30.32,31.84,5.68,31.50,1009.29,2048.85,3418.97,3332.92,3615.99,349.77,315.67,7.70,0000 0000 0000 0000 000000
2013-07-11 01:26:20,0.02,0.07,0.00,28.61,30.32,31.91,5.70,31.50,1009.28,2048.91,3418.96,3332.93,3615.99,349.92,315.57,7.71,0000 0000 0000 0000 000000
2013-07-11 01:27:20,0.04,0.07,0.00,28.64,30.32,31.91,5.80,31.38,1009.29,2048.93,3418.96,3332.92,3615.99,350.67,316.04,7.71,0000 0000 0000 0000 000000
2013-07-11 01:28:20,0.02,0.07,0.00,28.59,30.32,31.88,5.67,31.63,1009.26,2048.94,3418.75,3332.82,3615.99,349.53,315.01,7.72,0000 0000 0000 0000 000000
2013-07-11 01:29:21,0.06,0.07,0.00,28.60,30.32,31.84,5.85,31.71,1009.28,2048.95,3418.32,3332.47,3615.85,349.40,315.12,7.73,0000 0000 0000 0000 000000
2013-07-11 01:30:21,0.14,0.07,0.00,28.60,30.32,31.88,5.84,31.50,1009.28,2048.95,3418.11,3332.19,3615.37,350.20,315.84,7.73,0000 0000 0000 0000 000000
2013-07-11 01:31:21,0.13,0.07,0.00,28.63,30.31,31.88,5.85,31.42,1009.28,2048.95,3417.83,3332.05,3615.13,352.05,317.16,7.74,0000 0000 0000 0000 000000
2013-07-11 01:32:21,0.12,0.07,0.00,28.62,30.31,31.87,5.67,31.54,1009.29,2048.97,3417.32,3331.60,3614.75,349.78,315.05,7.74,0000 0000 0000 0000 000000
2013-07-11 01:33:22,0.22,0.07,0.00,28.64,30.31,31.93,5.87,31.54,1009.29,2048.98,3416.74,3331.21,3614.28,350.35,315.75,7.75,0000 0000 0000 0000 000000
2013-07-11 01:34:22,0.20,0.07,0.00,28.65,30.30,31.87,5.83,31.63,1009.29,2048.95,3416.19,3330.73,3613.87,349.83,315.45,7.75,0000 0000 0000 0000 000000
2013-07-11 01:35:22,0.23,0.08,0.00,28.64,30.30,31.86,5.83,31.67,1009.28,2048.95,3415.50,3330.21,3613.29,349.66,315.31,7.76,0000 0000 0000 0000 000000
2013-07-11 01:36:22,0.25,0.08,0.00,28.58,30.30,31.78,5.83,31.54,1009.29,2048.96,3414.72,3329.57,3612.60,350.02,315.73,7.77,0000 0000 0000 0000 000000
2013-07-11 01:37:23,0.33,0.08,0.00,28.58,30.30,31.84,5.88,31.54,1009.29,2048.97,3414.07,3329.11,3612.13,350.56,316.19,7.77,0000 0000 0000 0000 000000
2013-07-11 01:38:23,0.27,0.08,0.00,28.58,30.30,31.93,5.73,31.50,1009.28,2048.95,3413.41,3328.51,3611.50,349.89,315.58,7.78,0000 0000 0000 0000 000000
2013-07-11 01:39:23,0.23,0.08,0.00,28.61,30.30,31.92,5.72,31.54,1009.28,2048.97,3412.83,3328.16,3611.14,349.77,315.44,7.78,0000 0000 0000 0000 000000
2013-07-11 01:40:23,0.21,0.08,0.00,28.58,30.30,31.81,5.75,31.46,1009.29,2048.99,3412.30,3327.66,3610.58,348.85,314.59,7.79,0000 0000 0000 0000 000000
2013-07-11 01:41:23,0.25,0.09,0.00,28.58,30.30,31.81,5.86,31.63,1009.29,2048.98,3411.74,3327.24,3610.20,349.60,315.32,7.80,0000 0000 0000 0000 000000
2013-07-11 01:42:24,0.19,0.09,0.00,28.60,30.30,31.84,5.83,31.67,1009.29,2048.99,3411.24,3327.02,3609.92,349.72,315.41,7.80,0000 0000 0000 0000 000000
2013-07-11 01:43:24,0.16,0.09,0.00,28.60,30.30,31.80,5.98,31.79,1009.29,2048.94,3410.68,3326.52,3609.41,350.77,316.35,7.81,0000 0000 0000 0000 000000
2013-07-11 01:44:24,0.19,0.09,0.00,28.58,30.30,31.79,5.77,31.79,1009.29,2048.95,3410.27,3326.20,3609.15,350.30,316.18,7.81,0000 0000 0000 0000 000000
2013-07-11 01:45:25,0.15,0.09,0.00,28.57,30.30,31.87,5.86,31.54,1009.25,2048.97,3410.10,3326.07,3609.05,350.72,316.33,7.82,0000 0000 0000 0000 000000
2013-07-11 01:46:25,0.06,0.09,0.00,28.59,30.30,31.82,5.69,31.71,1009.23,2048.98,3410.03,3326.02,3609.01,347.75,314.00,7.82,0000 0000 0000 0000 000000
2013-07-11 01:47:25,0.03,0.09,0.00,28.59,30.30,31.76,5.81,31.58,1009.11,2048.99,3410.01,3326.00,3609.00,348.90,314.52,7.83,0000 0000 0000 0000 000000
2013-07-11 01:48:25,0.01,0.09,0.00,28.60,30.30,31.83,5.86,31.50,1009.07,2048.98,3409.98,3326.00,3608.98,350.46,316.02,7.84,0000 0000 0000 0000 000000
2013-07-11 01:49:26,0.00,0.09,0.00,28.64,30.30,31.92,5.63,31.63,1009.04,2048.98,3409.59,3325.99,3608.80,348.90,314.51,7.84,0000 0000 0000 0000 000000
2013-07-11 01:50:26,0.10,0.09,0.00,28.63,30.30,31.84,5.68,31.67,1009.09,2048.97,3409.22,3325.86,3608.38,349.16,314.61,7.85,0000 0000 0000 0000 000000
2013-07-11 01:51:26,0.10,0.09,0.00,28.65,30.30,31.88,5.71,31.54,1009.08,2048.97,3408.99,3325.42,3608.14,349.61,314.99,7.85,0000 0000 0000 0000 000000
2013-07-11 01:52:26,0.17,0.09,0.00,28.64,30.30,31.88,5.80,31.54,1009.00,2048.97,3408.44,3325.15,3608.02,350.64,316.31,7.86,0000 0000 0000 0000 000000
2013-07-11 01:53:27,0.12,0.09,0.00,28.63,30.30,31.82,5.80,31.63,1009.03,2048.98,3408.16,3325.02,3607.70,349.64,315.23,7.87,0000 0000 0000 0000 000000
2013-07-11 01:54:27,0.11,0.09,0.00,28.62,30.30,31.80,5.77,31.71,1009.02,2048.99,3407.98,3324.91,3607.32,350.04,315.59,7.87,0000 0000 0000 0000 000000
2013-07-11 01:55:27,0.10,0.09,0.00,28.63,30.30,31.88,5.84,31.67,1008.98,2048.99,3407.53,3324.51,3607.11,351.00,316.44,7.88,0000 0000 0000 0000 000000
2013-07-11 01:56:28,0.17,0.10,0.00,28.61,30.30,31.84,5.88,31.46,1009.00,2048.99,3407.20,3324.23,3607.04,351.28,316.71,7.88,0000 0000 0000 0000 000000
2013-07-11 01:57:28,0.10,0.10,0.00,28.59,30.30,31.90,5.81,31.75,1009.03,2048.99,3407.07,3324.08,3607.01,350.38,315.94,7.89,0000 0000 0000 0000 000000
2013-07-11 01:58:28,0.04,0.10,0.00,28.61,30.30,31.82,5.70,31.75,1008.96,2048.99,3407.00,3324.03,3606.93,349.63,315.22,7.90,0000 0000 0000 0000 000000
2013-07-11 01:59:28,0.03,0.10,0.00,28.64,30.30,31.86,5.63,31.46,1008.98,2048.99,3406.80,3324.01,3606.76,349.04,314.47,7.90,0000 0000 0000 0000 000000
2013-07-11 02:00:29,0.06,0.10,0.00,28.60,30.29,31.80,5.67,31.54,1008.97,2048.98,3406.36,3323.97,3606.41,349.26,315.26,7.91,0000 0000 0000 0000 000000
2013-07-11 02:01:29,0.09,0.10,0.00,28.61,30.29,31.82,5.72,31.58,1008.95,2048.99,3406.13,3323.80,3606.16,349.64,315.22,7.91,0000 0000 0000 0000 000000
2013-07-11 02:02:29,0.09,0.10,0.00,28.62,30.29,31.82,5.73,31.63,1009.02,2048.99,3406.03,3323.58,3606.05,350.01,315.52,7.92,0000 0000 0000 0000 000000
2013-07-11 02:03:29,0.07,0.10,0.00,28.60,30.29,31.83,5.75,31.63,1009.06,2048.99,3405.82,3323.25,3606.02,350.11,315.51,7.92,0000 0000 0000 0000 000000
2013-07-11 02:04:29,0.09,0.10,0.00,28.58,30.29,31.84,5.86,31.63,1009.19,2048.99,3405.37,3323.09,3606.00,350.45,316.19,7.93,0000 0000 0000 0000 000000
2013-07-11 02:05:30,0.09,0.10,0.00,28.61,30.28,31.83,5.68,31.63,1009.11,2048.99,3405.13,3323.03,3605.91,350.14,315.73,7.94,0000 0000 0000 0000 000000
2013-07-11 02:06:30,0.06,0.10,0.00,28.61,30.28,31.88,5.84,31.50,1009.08,2048.99,3405.04,3323.01,3605.65,349.43,315.07,7.94,0000 0000 0000 0000 000000
2013-07-11 02:07:30,0.04,0.10,0.00,28.62,30.28,31.82,5.72,31.50,1009.16,2048.99,3404.97,3323.00,3605.32,349.93,315.34,7.95,0000 0000 0000 0000 000000
2013-07-11 02:08:30,0.05,0.10,0.00,28.59,30.27,31.84,5.79,31.58,1009.17,2048.99,3404.67,3322.92,3605.12,350.15,315.77,7.95,0000 0000 0000 0000 000000
2013-07-11 02:09:30,0.08,0.10,0.00,28.61,30.27,31.87,5.79,31.54,1009.19,2048.99,3404.29,3322.67,3605.04,350.33,316.21,7.96,0000 0000 0000 0000 000000
2013-07-11 02:10:31,0.11,0.10,0.00,28.64,30.27,31.81,5.82,31.29,1009.15,2048.99,3404.10,3322.40,3605.01,350.24,315.72,7.97,0000 0000 0000 0000 000000
2013-07-11 02:11:31,0.06,0.10,0.00,28.64,30.27,31.90,5.67,31.54,1009.17,2048.99,3404.04,3322.30,3605.00,349.49,314.90,7.97,0000 0000 0000 0000 000000
2013-07-11 02:12:31,0.02,0.10,0.00,28.62,30.27,31.84,5.82,31.50,1009.14,2048.99,3404.01,3322.16,3605.00,349.72,315.61,7.98,0000 0000 0000 0000 000000
2013-07-11 02:13:31,0.03,0.10,0.00,28.59,30.27,31.77,5.89,31.54,1009.07,2048.99,3404.00,3322.06,3604.98,350.58,316.13,7.98,0000 0000 0000 0000 000000
2013-07-11 02:14:32,0.01,0.10,0.00,28.58,30.27,31.81,5.76,31.46,1008.96,2048.99,3403.93,3322.03,3604.97,350.70,316.21,7.99,0000 0000 0000 0000 000000
2013-07-11 02:15:32,0.02,0.10,0.00,28.59,30.27,31.83,5.57,31.50,1008.89,2048.99,3403.65,3322.01,3604.86,349.30,314.92,7.99,0000 0000 0000 0000 000000
2013-07-11 02:16:32,0.06,0.10,0.00,28.57,30.27,31.84,5.79,31.50,1008.85,2048.99,3403.32,3322.00,3604.59,349.87,315.44,8.00,0000 0000 0000 0000 000000
2013-07-11 02:17:32,0.08,0.10,0.00,28.57,30.27,31.75,5.89,31.42,1008.84,2048.99,3403.15,3322.00,3604.44,349.58,315.18,8.01,0000 0000 0000 0000 000000
2013-07-11 02:18:33,0.02,0.10,0.00,28.56,30.27,31.78,5.89,31.46,1008.82,2048.99,3403.06,3322.00,3604.29,350.73,316.39,8.01,0000 0000 0000 0000 000000
2013-07-11 02:19:33,0.03,0.10,0.00,28.56,30.27,31.82,5.71,31.42,1008.83,2048.99,3403.02,3322.00,3604.12,349.70,315.60,8.02,0000 0000 0000 0000 000000
2013-07-11 02:20:33,0.02,0.10,0.00,28.56,30.27,31.83,5.69,31.58,1008.84,2048.99,3402.99,3321.87,3604.04,349.23,314.87,8.02,0000 0000 0000 0000 000000
2013-07-11 02:21:33,0.04,0.10,0.00,28.55,30.27,31.82,5.66,31.46,1008.83,2048.99,3402.84,3321.55,3604.01,349.40,314.98,8.03,0000 0000 0000 0000 000000
2013-07-11 02:22:34,0.10,0.10,0.00,28.53,30.27,31.86,5.81,31.54,1008.82,2048.99,3402.50,3321.29,3604.00,350.13,316.08,8.04,0000 0000 0000 0000 000000
2013-07-11 02:23:34,0.09,0.11,0.00,28.52,30.27,31.83,5.70,31.50,1008.81,2048.99,3402.26,3321.14,3604.00,349.92,315.19,8.04,0000 0000 0000 0000 000000
2013-07-11 02:24:34,0.05,0.11,0.00,28.53,30.27,31.83,5.77,31.58,1008.82,2048.99,3402.10,3321.05,3603.91,350.00,315.13,8.05,0000 0000 0000 0000 000000
2013-07-11 02:25:34,0.04,0.11,0.00,28.52,30.27,31.86,5.78,31.71,1008.83,2048.99,3402.03,3321.02,3603.68,350.18,316.01,8.05,0000 0000 0000 0000 000000
2013-07-11 02:26:34,0.04,0.11,0.00,28.51,30.27,31.90,5.72,31.46,1008.81,2048.99,3401.98,3321.00,3603.46,349.13,314.82,8.06,0000 0000 0000 0000 000000
2013-07-11 02:27:34,0.03,0.11,0.00,28.56,30.27,31.87,5.80,31.58,1008.82,2048.99,3401.65,3320.99,3603.18,350.97,315.97,8.07,0000 0000 0000 0000 000000
2013-07-11 02:28:35,0.09,0.11,0.00,28.55,30.27,31.83,5.85,31.67,1008.82,2048.99,3401.25,3320.93,3603.07,350.89,316.63,8.07,0000 0000 0000 0000 000000
2013-07-11 02:29:35,0.07,0.11,0.00,28.59,30.27,31.81,5.73,31.67,1008.83,2048.99,3401.10,3320.78,3603.02,349.82,315.07,8.08,0000 0000 0000 0000 000000
2013-07-11 02:30:35,0.06,0.11,0.00,28.61,30.27,31.77,5.65,31.46,1008.82,2048.99,3401.04,3320.49,3603.00,348.86,314.78,8.08,0000 0000 0000 0000 000000
2013-07-11 02:31:35,0.06,0.11,0.00,28.60,30.27,31.76,5.59,31.42,1008.82,2048.99,3400.86,3320.22,3602.94,348.65,314.67,8.09,0000 0000 0000 0000 000000
2013-07-11 02:32:35,0.09,0.11,0.00,28.57,30.27,31.79,5.87,31.29,1008.82,2048.99,3400.39,3320.07,3602.55,349.60,315.19,8.09,0000 0000 0000 0000 000000
2013-07-11 02:33:35,0.15,0.11,0.00,28.59,30.27,31.82,5.88,31.67,1008.82,2048.99,3400.13,3320.01,3602.20,350.77,315.88,8.10,0000 0000 0000 0000 000000
2013-07-11 02:34:35,0.07,0.11,0.00,28.59,30.26,31.83,5.77,31.58,1008.82,2048.99,3399.78,3319.90,3602.07,350.18,315.54,8.11,0000 0000 0000 0000 000000
2013-07-11 02:35:35,0.09,0.11,0.00,28.59,30.26,31.79,5.82,31.67,1008.81,2048.99,3399.31,3319.51,3602.00,349.77,315.27,8.11,0000 0000 0000 0000 000000
2013-07-11 02:36:36,0.15,0.11,0.00,28.57,30.26,31.83,5.77,31.67,1008.81,2048.99,3399.11,3319.22,3601.79,350.23,315.45,8.12,0000 0000 0000 0000 000000
2013-07-11 02:37:36,0.10,0.11,0.00,28.56,30.26,31.90,5.91,31.58,1008.80,2048.99,3399.00,3319.08,3601.44,350.43,315.69,8.12,0000 0000 0000 0000 000000